sat.trackr.live / text

‹ back to catalog

UNKNOWN

NORAD 89349

UNKNOWN UNKNOWN UNKNOWN

§ Identity

Operator
Country
Launch date
Launch site
Launch vehicle
Mass (kg)
RCS (m²)

External: N2YO · Heavens-Above

§ Orbital elements

Epoch: 2026-07-09T11:23:25.685376Z

Period
111.08 min
Inclination
90.2475°
Eccentricity
0.0031969
Mean motion
12.96333254 rev/d
Perigee alt
1,252.0 km
Apogee alt
1,301.0 km
Semi-major
7,654.6 km
B*
3.9594e-4
RAAN
12.0818°
Arg perigee
78.6287°
Mean anomaly
281.8422°
Rev number
50,579

§ Raw data

UNKNOWN1 89349U          26190.47460284  .00000121  00000+0  39594-3 0  99922 89349  90.2475  12.0818 0031969  78.6287 281.8422 12.96333254505799

JSON: /api/v1/satellites/89349 · /tle

For live sub-satellite position, see the globe view (requires WebGL).

§ Visibility from observer

Set your observer location to see the next 7 days of passes ≥ 10°. The values pass through the URL so the page stays shareable.

No JS? Fill the form by hand. The geolocation button needs JavaScript.